Location: Macksville High School
(37.9611°N, 99.9654°W)
Time: 14:30:15
(UTC+00:00)

Cosmos 1782 - Pass Details

Date: 27 February 2020
Orbit: 535 x 554 km, 82.5° (Epoch: 29 March)

Event Time Altitude Azimuth Distance (km) Brightness Sun altitude
Rises 12:30:12 0° 181° (S) 2,715 6.4 -9.6°
Reaches altitude 10° 12:32:22 10° 179° (S) 1,826 5.5 -9.2°
Maximum altitude 12:36:22 71° 96° (E) 590 3.2 -8.4°
Drops below altitude 10° 12:40:24 10° 12° (NNE) 1,839 5.6 -7.6°
Sets 12:42:35 0° 10° (N) 2,737 6.4 -7.1°
